Wind_Speed
22 27 22 18 18 19 20 21 25 25 27 25 26 29 28 27 28 26 26 23 20 19 18 15 15 15 15 14 14 16 16 17 17 16 16 16 16 15 15 14 15 15 16
34 31 26 20 20 20 21 21 22 25 24 25 26 28 26 27 25 26 24 21 18 17 16 14 14 14 13 13 13 14 15 16 16 16 16 16 16 15 15 14 15 14 13
36 35 27 23 20 21 22 23 22 23 23 23 25 25 26 25 23 23 21 19 17 17 18 15 13 12 12 11 11 13 13 14 16 15 15 15 15 13 13 12 12 13 14
38 33 28 22 21 21 21 22 22 21 22 22 23 21 23 24 23 23 19 17 15 15 16 13 13 12 11 11 12 13 14 15 14 14 16 14 12 14 13 12 12 13 12
36 33 27 22 21 21 22 21 22 21 21 22 21 20 19 20 21 20 17 16 15 14 13 12 13 12 12 13 14 14 15 13 12 14 14 14 13 12 12 11 11 11 12
36 33 26 22 20 22 23 24 23 22 22 20 19 18 17 19 19 18 17 16 14 14 12 11 13 13 12 13 15 16 14 13 13 12 13 13 13 11 13 11 10 10 11
35 32 25 22 21 22 21 21 22 20 19 20 18 17 16 17 17 18 18 17 16 15 13 12 14 14 14 13 14 16 14 12 9 9 10 11 11 10 11 12 10 8 8
37 31 26 23 23 23 21 20 20 20 19 19 18 17 17 16 17 17 18 17 16 15 14 13 14 14 15 14 13 14 10 8 6 7 7 9 10 10 10 10 10 9 8
32 33 28 25 23 22 21 20 20 20 18 19 19 19 17 17 17 16 16 16 16 15 14 14 13 13 15 15 14 13 10 6 8 9 10 10 10 9 10 11 9 10 9
32 33 30 27 24 24 23 22 21 21 20 20 19 18 18 18 16 15 15 16 16 15 14 13 13 13 14 14 14 11 7 4 6 8 10 10 10 9 10 11 10 10 10
28 31 31 30 26 25 25 23 22 20 19 19 18 18 17 18 17 16 15 15 14 13 13 12 13 14 14 13 12 11 6 3 6 8 9 9 10 11 11 11 11 10 10
27 31 33 32 30 28 27 25 24 23 21 20 20 19 20 20 19 17 15 14 14 12 13 12 14 15 14 16 12 11 8 6 5 8 10 10 12 12 13 13 12 11 10
32 30 34 34 31 30 30 29 26 24 23 22 21 21 19 19 18 17 15 14 14 14 14 13 12 13 13 15 15 13 11 9 8 8 9 10 14 14 13 14 14 13 12
26 33 33 35 35 33 29 29 28 27 26 25 24 22 20 19 19 18 17 18 15 16 15 15 14 13 13 14 14 13 12 11 10 10 11 14 16 16 14 15 14 14 14
30 31 33 36 36 33 32 31 30 31 28 27 25 24 21 21 21 19 19 19 18 17 17 16 14 14 13 14 14 13 13 12 9 10 12 12 14 17 16 14 15 15 15
34 34 34 37 37 29 34 34 33 32 30 29 28 26 24 22 22 21 20 19 19 18 16 16 15 14 15 15 14 15 14 12 9 10 13 10 13 17 17 16 15 16 16
40 38 35 38 37 35 33 35 34 33 32 30 30 28 27 25 23 23 21 20 20 18 16 15 15 16 16 15 16 16 15 13 10 9 11 10 13 15 16 17 16 15 15
29 35 38 37 38 40 38 36 35 34 33 32 31 30 28 27 26 25 23 22 20 19 18 18 17 17 17 17 17 17 16 15 13 12 11 11 13 18 19 19 18 16 16
25 27 35 35 38 42 41 39 37 36 35 35 33 32 32 30 28 28 25 24 22 20 20 20 19 18 18 18 18 17 16 16 15 16 17 17 17 16 21 23 22 19 18
28 31 32 37 36 38 37 34 36 35 36 36 36 35 33 33 31 30 29 25 25 23 23 22 22 21 21 20 20 20 18 17 18 16 21 21 21 22 21 24 26 25 24
31 34 36 35 38 35 31 31 29 33 35 35 36 35 35 33 32 31 30 29 27 27 27 25 25 25 23 23 16 18 22 22 22 21 18 21 22 22 22 26 26 28 28
30 36 37 40 38 40 35 32 28 27 31 38 35 35 34 34 33 32 32 32 29 28 29 29 30 24 24 23 12 4 2 10 20 25 25 25 26 24 25 26 27 30 30
33 40 41 38 37 40 38 33 25 20 21 27 32 34 35 35 33 34 34 32 32 30 30 30 29 28 23 21 23 9 2 5 2 11 20 29 31 30 29 27 29 29 29
32 31 36 42 41 41 42 33 35 30 23 24 30 37 36 34 34 32 34 33 33 34 32 32 32 30 27 22 17 26 17 4 3 2 6 13 17 23 27 28 27 30 32
6 22 33 33 39 39 44 39 37 32 29 25 26 29 35 35 35 35 36 36 34 35 36 33 33 33 32 27 23 15 26 21 16 3 3 6 9 9 9 12 16 23 29
16 5 13 35 38 39 42 42 39 35 30 28 29 30 33 36 35 35 33 35 34 35 38 38 37 33 29 28 28 29 21 11 14 12 7 12 13 23 25 25 24 22 22
Wind_Direction
168 161 154 142 134 130 124 126 126 130 134 136 139 139 137 137 134 134 132 131 125 123 131 132 131 134 133 126 120 116 118 119 121 122 119 116 113 114 111 109 114 107 107
161 163 158 147 142 138 132 132 131 133 133 137 137 142 140 140 140 141 134 135 130 127 132 137 139 139 139 135 123 119 123 123 124 125 122 118 115 113 113 116 117 115 114
159 161 159 148 150 144 143 138 137 136 135 134 140 144 146 143 144 144 144 143 144 140 141 140 143 143 143 140 126 125 128 129 127 126 132 120 120 124 121 127 121 114 116
161 162 159 158 158 149 148 142 142 141 135 139 143 144 147 147 151 147 150 151 149 144 139 144 143 147 144 141 136 134 132 133 128 135 134 118 119 126 126 133 124 123 123
166 168 164 165 163 158 153 153 151 148 146 145 143 146 149 149 158 158 157 158 158 152 147 151 149 147 150 144 143 141 138 140 137 138 138 133 125 135 136 132 136 126 132
172 175 169 171 169 163 159 159 158 154 152 146 148 149 152 157 161 162 165 166 165 160 157 156 157 154 149 150 148 143 138 141 139 137 146 148 144 150 147 141 138 138 135
176 179 179 177 173 172 167 165 163 158 155 154 155 158 157 161 162 164 169 167 169 167 164 156 155 150 148 154 151 151 137 145 146 147 157 162 159 160 152 147 151 157 149
179 182 183 181 178 177 174 173 172 167 162 161 162 167 165 165 165 166 164 166 169 166 164 156 152 152 150 154 155 156 160 168 203 185 178 178 171 169 164 159 163 163 162
180 178 177 178 178 179 178 179 179 174 170 170 173 172 170 172 169 166 167 167 168 171 169 163 162 160 159 159 161 165 169 194 223 216 202 189 182 177 186 185 183 177 175
177 179 177 179 179 181 181 185 184 179 177 177 178 174 174 173 171 170 177 172 169 173 172 169 168 168 165 167 171 174 181 203 197 184 187 195 194 191 200 203 200 193 186
177 182 182 181 184 186 184 185 190 187 184 185 185 184 182 180 178 179 182 181 170 174 177 173 175 173 172 175 181 179 185 185 191 191 205 214 216 205 214 219 215 209 203
182 187 187 187 187 187 185 183 191 187 189 188 191 188 193 188 184 184 189 182 186 180 178 180 179 181 185 182 189 189 191 186 178 206 231 240 236 224 217 230 229 223 214
191 191 194 193 193 191 189 187 192 193 193 195 194 193 196 191 190 191 193 189 188 187 186 187 190 192 198 194 194 198 203 206 207 224 242 253 243 235 228 231 231 231 226
196 197 197 198 195 197 197 193 192 193 195 197 197 197 197 194 196 198 202 196 199 194 198 196 204 202 202 202 201 209 217 223 226 236 260 271 249 236 234 231 234 233 231
197 201 200 199 199 195 199 200 199 199 199 199 199 201 202 201 200 200 203 202 204 203 206 206 208 210 207 208 208 222 224 231 236 259 272 269 235 227 235 238 238 237 236
199 201 201 201 202 194 197 201 204 203 204 203 204 204 206 208 206 205 207 210 214 215 214 217 217 216 219 222 223 232 230 234 248 267 264 263 246 229 236 242 248 246 244
195 198 199 203 203 201 203 207 209 207 206 207 207 206 208 210 210 211 211 213 217 221 224 226 228 231 232 230 234 235 235 239 253 265 249 251 254 242 241 245 249 253 254
194 196 201 201 203 206 208 212 213 213 212 211 211 211 212 213 213 212 215 218 221 228 231 233 233 234 237 237 241 242 244 247 255 249 243 245 255 242 238 239 245 248 253
201 200 201 202 203 207 211 213 216 218 218 217 215 214 214 215 215 216 219 221 224 229 231 234 238 237 237 237 241 245 247 252 259 256 248 247 253 250 247 242 245 248 248
202 205 206 206 207 208 207 208 215 219 222 222 221 219 217 217 217 218 220 221 224 228 231 234 237 240 241 245 243 248 249 252 256 264 251 250 251 256 255 250 248 250 251
206 206 205 203 206 204 196 198 206 210 219 223 224 223 222 219 218 219 223 224 223 227 231 232 236 239 240 241 239 251 254 253 255 257 261 253 254 255 259 258 255 254 256
198 207 206 207 204 204 201 205 206 212 219 223 226 226 222 221 221 222 223 226 229 233 240 238 235 233 239 240 223 216 295 266 256 253 256 258 257 257 258 257 257 259 261
202 206 205 204 203 202 206 202 202 210 220 221 226 229 225 223 226 228 227 228 230 234 239 237 237 232 230 235 222 196 162 229 272 247 250 254 256 257 257 259 257 258 260
224 209 204 204 203 204 203 201 198 200 201 213 218 224 230 231 231 231 231 232 233 233 237 239 236 240 234 228 224 223 225 184 192 293 248 251 256 258 259 259 262 259 260
274 228 210 203 202 200 201 202 203 206 207 204 218 228 230 231 234 236 231 232 236 237 237 238 237 239 236 231 224 220 226 232 237 186 274 278 279 280 281 282 286 274 266
346 296 229 207 203 203 199 200 202 205 205 200 200 213 224 230 230 234 234 233 237 241 240 241 244 246 242 242 240 235 231 214 222 222 239 251 255 275 282 282 281 278 274
Height
776 779 784 788 790 792 793 795 797 799 800 803 805 807 810 813 815 818 820 823 825 827 829 831 832 833 834 835 836 836 839 839 841 842 843 844 844 846 848 849 850 851 852
770 778 783 787 791 793 793 796 799 802 804 805 808 810 813 815 818 820 823 826 828 830 832 834 835 836 836 838 838 838 841 842 843 844 845 845 846 849 850 852 852 853 854
772 778 784 787 791 794 797 798 800 803 805 808 809 813 815 817 820 822 826 828 830 831 833 836 837 838 838 839 839 841 843 844 845 846 847 847 848 851 852 854 855 855 856
774 779 783 788 791 794 798 800 803 806 806 809 812 815 817 818 822 824 827 830 832 834 835 837 838 839 840 840 841 843 845 846 846 847 848 849 851 853 855 856 857 858 859
776 780 784 787 791 795 798 801 804 807 809 811 813 816 820 821 824 826 829 831 834 835 836 839 839 841 842 842 843 846 847 848 848 849 850 851 853 855 857 858 859 860 861
776 781 785 788 791 796 799 802 805 807 809 812 815 818 820 823 825 827 830 832 835 835 838 839 840 842 843 845 846 847 849 849 850 851 852 853 855 856 858 860 862 862 863
776 781 786 789 792 795 799 802 805 807 808 811 815 819 821 823 825 828 830 832 835 836 838 840 841 843 844 847 847 848 849 851 852 852 853 855 857 858 859 860 862 863 864
774 782 786 790 793 796 799 802 804 806 810 812 815 819 821 823 826 828 830 832 834 836 838 840 842 843 845 848 849 850 851 852 853 853 854 856 858 859 860 861 862 864 865
776 781 786 790 794 796 799 802 805 807 809 812 816 819 821 824 826 829 831 832 834 836 838 840 843 844 845 847 849 850 852 852 853 853 855 857 859 860 862 863 863 864 865
777 780 784 789 793 796 799 802 805 808 810 814 817 819 821 824 826 828 831 833 834 836 838 841 843 845 846 848 849 851 852 852 853 854 855 857 859 861 863 863 864 865 865
777 779 782 786 791 795 798 802 806 809 812 814 817 820 822 824 826 829 830 833 834 836 839 841 843 845 846 849 850 851 853 853 854 855 857 858 859 861 863 864 864 865 866
775 778 780 785 789 794 797 801 806 809 812 815 817 820 822 824 825 828 830 832 835 837 839 842 843 845 847 848 851 853 853 854 855 856 857 858 859 860 863 864 865 865 866
771 776 778 782 788 793 796 799 803 807 810 813 817 820 822 824 827 828 831 833 835 837 839 841 844 846 847 848 850 852 853 854 855 856 857 857 858 859 861 863 864 865 866
772 773 776 781 785 791 795 798 801 805 809 812 815 818 821 824 825 828 830 833 835 837 839 840 843 845 847 849 851 852 853 854 854 855 856 856 856 857 859 860 861 863 865
766 771 774 779 782 786 792 797 799 803 806 810 813 816 819 822 824 827 830 833 834 836 838 840 842 844 846 849 850 852 853 854 854 855 854 854 854 855 857 859 860 862 863
759 765 771 775 781 786 789 793 797 800 803 807 810 813 817 821 824 826 829 831 834 836 838 839 841 842 845 848 849 851 852 853 853 853 853 853 854 855 856 858 859 860 861
746 758 766 772 778 784 789 792 795 798 802 805 807 811 815 818 822 824 827 830 833 835 837 839 840 842 844 845 846 848 850 851 851 851 851 852 853 854 855 857 858 858 859
752 754 760 767 773 779 784 789 793 797 799 802 805 809 812 815 819 822 825 828 831 833 835 837 839 840 842 843 845 846 847 849 849 849 849 850 851 852 853 854 855 856 857
753 757 760 765 767 772 778 783 788 793 796 798 802 805 808 812 815 819 821 824 827 830 832 835 837 838 839 841 842 844 845 846 847 847 848 848 849 850 850 851 852 852 853
748 753 759 762 766 770 775 779 784 788 793 795 797 800 804 808 811 814 817 820 823 825 828 831 832 834 836 838 840 841 843 843 844 844 845 846 847 847 848 848 849 849 850
743 747 751 757 760 768 771 775 779 781 787 791 793 796 800 803 807 810 813 816 818 820 823 826 829 830 832 834 837 838 838 838 838 839 840 842 843 844 844 845 845 846 846
734 740 744 748 754 759 765 770 774 778 781 785 790 793 795 798 802 805 808 811 814 817 819 821 824 826 828 830 833 836 836 834 832 833 835 836 837 838 839 840 841 841 842
727 728 732 742 749 751 758 764 771 776 780 784 787 791 792 795 798 800 803 806 809 812 814 816 818 820 822 825 828 831 836 832 829 827 827 829 830 831 833 833 834 835 836
719 724 727 731 738 744 750 758 760 764 770 774 777 782 789 793 794 796 799 801 804 806 808 810 813 815 818 820 823 824 824 825 827 827 824 824 824 825 826 828 828 829 830
722 723 724 727 731 735 739 746 752 755 759 765 773 778 783 786 789 791 793 796 798 801 803 805 807 809 811 814 817 819 821 822 824 825 826 823 822 822 822 823 823 823 824
720 720 721 721 723 728 732 736 741 748 754 758 761 768 774 779 782 784 787 789 792 795 797 800 802 804 808 811 812 814 816 818 820 822 823 821 820 817 818 818 818 818 818